Find Starlink 34549

NORAD ID: 65017 Int'l Des: 2025-161 Owner: SPXS Country: US Constellation: starlink operational
LEOCIRCULAR

現在のビュー

3D地球を読み込み中...

About Starlink 34549

Starlink 34549 (NORAD 65017) is a starlink constellation satellite (v2 mini) launched Jul 30, 2025 by SPXS of US. It operates in LEO, CIRCULAR orbit with a mass of 575.00 kg.

次回通過

Passes for default location (London). Set your location on the main map for personalized predictions.

高度履歴

Loading altitude history...

軌道要素

1 65017U 25161C 26236.27374135 .00026614 00000-0 79606-3 0 9995
2 65017 53.1570 234.6628 0001752 86.8973 273.2230 15.34397899 61115
Epoch: Aug 24, 2026 • Age: 19 hours

現在のステータス

高度 468.0 km
遠地点 / 近地点 N/A
速度 7.64 km/s
衛星直下点 53.29°N, 36.29°W
打ち上げ日 Jul 30, 2025
運用期間 1 year
タイプ internet

技術仕様

分類 Payload
質量 575.00 kg
乾燥質量 530.00 kg
総質量 575.00 kg
長さ 0.30 m
直径 4.10 m
スパン 29.00 m
形状 Box + pan
製造者 SPXS
バスタイプ Starlink V2MO
フェーズステータス In Orbit
所有者/国 SPXS/US

Most Searched